FENGYUN 1C DEB, 31046

Orbit data source: Space-Track

FENGYUN 1C DEB, 31046 is space debris in SSO originally from a launch on Mon, 10 May 1999 UTC launched from the Taiyaun Space Center, China (TSC). Fengyun 1C debris stems from the Chinese weather satellite Fengyun-1C, which was intentionally destroyed by a Chinese anti-satellite missile in 2007. This event dramatically increased the amount of space debris, with thousands of trackable fragments posing hazards to satellites and human spaceflight. The Fengyun 1C debris cloud has become a focal point in discussions about space sustainability and the need for international regulations to prevent the creation of new debris.

Loading next visibility...
Identifier
31046, 1999-025BEQ
Orbit
SSO
Country
Flag of CNCN / PRC
Related business
Manufacturer
Unknown
Mission
Spacecraft
Bus & Motor
Unknown
Mass
Unknown
Launch date (UTC)
1999-05-10 (27 years ago)
Launch vehicle
Unknown
Launch site
Taiyaun Space Center, China (TSC)
Object type
Payload
Rocket body
Debris
Shape & HBR
Unknown shape, 0.1 m
Radar Cross Section
Medium (>0.1 m² and <1 m²)

Expand to show TLE details & history
Last TLE update: 1 week ago

TLE from 1 week ago
0 FENGYUN 1C DEB
1 31046U 99025BEQ 26155.11007571  .00023725  00000-0  35856-2 0  9998
2 31046  98.9663 296.5025 0036849 284.3561 131.6683 14.73793811991882
Epoch: 2026-06-04T02:38Z
TLE epoch observation values (Epoch: 2026-06-04T02:38:30.541Z)
Latitude
55.40428°
Longitude
-8.83498°
Altitude
675.43 km
Speed
7.515 km/s
True Right ascension
18h 53m 24s
True Declination
55° 14' 29"
Sunlit
Object was in daylight at epoch
Visualization orbit readout
Latitude
Unknown
Longitude
Unknown
Altitude
Unknown
Speed
Unknown
Apparent Right ascension
Unknown
Apparent Declination
Unknown
Sunlit
N/A
Visualization observer readout
Local Sidereal Time
02:41:36
Azimuth
Unknown
Elevation
Unknown
Doppler factor
Unknown
Orbital elements
Apogee altitude
671.966 km
Perigee altitude
620.199 km
Semi-major axis
7,024.22 km
Eccentricity
0.00368
Inclination
98.9663°
RAAN
296.5025°
Arg. of periapsis
284.3561°
True anomaly
131.98276°
Mean anomaly
131.6683°
Eccentric anomaly
131.82563°
Mean motion
3.68677 °/min
Orbital period
97.65 mins
BSTAR
0.0035856
Loading maneuver chart data...
Computing Atmospheric mass density...

Documentation

Showing up to 5 results
|